| time (UTC) | temp C | wind direction | speed KPH | gust KPH | rain 1hr cm | rain 24hr cm | rain mn cm | humidity % | barometer mb |
| 20260504160404 | 12 | 336 | 0.0 | 11.3 | 0.00 | 0.00 | 0.00 | 3 | 1012.3 |
| 20260504150903 | 13 | 313 | 1.6 | 4.8 | 0.00 | 0.00 | 0.00 | 3 | 1012.3 |
| 20260504140403 | 12 | 310 | 1.6 | 4.8 | 0.00 | 0.00 | 0.00 | 3 | 1012.5 |
| 20260504130403 | 12 | 314 | 3.2 | 11.3 | 0.00 | 0.00 | 0.00 | 3 | 1012.6 |
| 20260504110404 | 11 | 71 | 0.0 | 0.0 | 0.00 | 0.00 | 0.00 | 3 | 1012.5 |
| 20260504081403 | 10 | 73 | 0.0 | 4.8 | 0.00 | 0.00 | 0.00 | 3 | 1012.0 |
| 20260504080403 | 10 | 76 | 0.0 | 8.0 | 0.00 | 0.00 | 0.00 | 3 | 1011.8 |
| 20260504050404 | 8 | 16 | 0.0 | 8.0 | 0.00 | 0.08 | 0.00 | 3 | 1010.7 |
| 20260504044905 | 8 | 61 | 0.0 | 0.0 | 0.00 | 0.10 | 0.00 | 3 | 1010.7 |
| 20260504043404 | 8 | 44 | 0.0 | 3.2 | 0.00 | 0.13 | 0.00 | 3 | 1010.6 |
| 20260504041404 | 8 | 44 | 0.0 | 0.0 | 0.00 | 0.13 | 0.00 | 3 | 1010.4 |
| 20260504040403 | 8 | 43 | 0.0 | 0.0 | 0.00 | 0.13 | 0.00 | 3 | 1010.4 |
| 20260504034403 | 8 | 61 | 0.0 | 0.0 | 0.00 | 0.13 | 0.00 | 3 | 1010.3 |
| 20260504033903 | 8 | 62 | 0.0 | 0.0 | 0.00 | 0.13 | 0.00 | 3 | 1010.3 |
| 20260504031904 | 8 | 37 | 0.0 | 0.0 | 0.00 | 0.13 | 0.00 | 3 | 1010.2 |
| 20260504031404 | 8 | 37 | 0.0 | 0.0 | 0.00 | 0.13 | 0.00 | 3 | 1010.2 |
| 20260504030403 | 8 | 49 | 1.6 | 8.0 | 0.00 | 0.13 | 0.00 | 3 | 1010.2 |
| 20260504024904 | 8 | 42 | 1.6 | 8.0 | 0.00 | 0.13 | 0.00 | 3 | 1010.2 |
| 20260504021904 | 8 | 79 | 0.0 | 0.0 | 0.00 | 0.15 | 0.00 | 3 | 1010.2 |
| 20260504020904 | 8 | 48 | 3.2 | 8.0 | 0.00 | 0.15 | 0.00 | 3 | 1010.2 |
| 20260504020404 | 8 | 44 | 1.6 | 9.7 | 0.00 | 0.15 | 0.00 | 3 | 1010.2 |
| 20260504013403 | 8 | 38 | 0.0 | 9.7 | 0.00 | 0.15 | 0.00 | 3 | 1010.0 |
| 20260504011404 | 10 | 93 | 0.0 | 0.0 | 0.00 | 0.20 | 0.00 | 3 | 1009.7 |
| 20260504010904 | 10 | 86 | 0.0 | 4.8 | 0.00 | 0.20 | 0.00 | 3 | 1009.8 |
| 20260504004904 | 10 | 52 | 1.6 | 4.8 | 0.00 | 0.23 | 0.00 | 3 | 1009.7 |
| 20260504003904 | 10 | 45 | 0.0 | 0.0 | 0.00 | 0.25 | 0.00 | 3 | 1009.7 |
| 20260504001904 | 10 | 63 | 1.6 | 4.8 | 0.00 | 0.33 | 0.00 | 3 | 1009.7 |
| 20260504001403 | 10 | 63 | 0.0 | 0.0 | 0.00 | 0.33 | 0.00 | 3 | 1009.7 |
| 20260504000903 | 10 | 63 | 0.0 | 4.8 | 0.00 | 0.33 | 0.00 | 3 | 1009.7 |
| 20260503234904 | 10 | 63 | 1.6 | 8.0 | 0.00 | 0.38 | 0.00 | 3 | 1009.7 |
| 20260503231903 | 10 | 51 | 1.6 | 11.3 | 0.00 | 0.43 | 0.00 | 3 | 1009.6 |
| 20260503231403 | 10 | 51 | 1.6 | 4.8 | 0.00 | 0.48 | 0.00 | 3 | 1009.6 |
| 20260503230904 | 10 | 54 | 0.0 | 4.8 | 0.00 | 0.48 | 0.00 | 3 | 1009.5 |
| 20260503230404 | 10 | 61 | 0.0 | 4.8 | 0.00 | 0.51 | 0.00 | 3 | 1009.5 |
| 20260503221904 | 10 | 76 | 1.6 | 9.7 | 0.00 | 0.61 | 0.51 | 3 | 1009.2 |
| 20260503220404 | 10 | 51 | 0.0 | 11.3 | 0.00 | 0.64 | 0.51 | 3 | 1009.2 |
| 20260503214403 | 10 | 38 | 3.2 | 14.5 | 0.00 | 0.71 | 0.51 | 3 | 1009.1 |
| 20260503213904 | 10 | 49 | 3.2 | 16.1 | 0.00 | 0.71 | 0.51 | 3 | 1009.1 |
| 20260503211903 | 11 | 57 | 0.0 | 8.0 | 0.00 | 0.71 | 0.51 | 3 | 1009.1 |
| 20260503210404 | 11 | 28 | 0.0 | 12.9 | 0.00 | 0.76 | 0.51 | 3 | 1009.0 |
| 20260503203403 | 11 | 52 | 1.6 | 16.1 | 0.00 | 0.81 | 0.51 | 3 | 1008.6 |
| 20260503201904 | 11 | 45 | 3.2 | 12.9 | 0.00 | 0.84 | 0.51 | 3 | 1008.1 |
| 20260503201404 | 11 | 33 | 3.2 | 12.9 | 0.00 | 0.84 | 0.51 | 3 | 1008.1 |
| 20260503200904 | 11 | 41 | 3.2 | 8.0 | 0.00 | 0.84 | 0.51 | 3 | 1008.1 |
| 20260503200403 | 11 | 44 | 0.0 | 9.7 | 0.00 | 0.84 | 0.51 | 3 | 1008.1 |
| 20260503194905 | 11 | 43 | 3.2 | 9.7 | 0.00 | 0.84 | 0.51 | 3 | 1008.0 |
| 20260503190905 | 12 | 49 | 3.2 | 9.7 | 0.00 | 0.84 | 0.51 | 3 | 1007.5 |
| 20260503184904 | 12 | 56 | 3.2 | 11.3 | 0.00 | 0.84 | 0.51 | 3 | 1007.3 |
| 20260503184404 | 12 | 23 | 3.2 | 12.9 | 0.00 | 0.84 | 0.51 | 3 | 1007.2 |
| 20260503181904 | 12 | 37 | 3.2 | 11.3 | 0.00 | 0.84 | 0.51 | 3 | 1007.1 |
| 20260503181404 | 12 | 53 | 4.8 | 11.3 | 0.00 | 0.84 | 0.51 | 3 | 1007.2 |
| 20260503180904 | 12 | 39 | 3.2 | 14.5 | 0.00 | 0.84 | 0.51 | 3 | 1007.1 |
| 20260503180404 | 12 | 39 | 1.6 | 11.3 | 0.00 | 0.84 | 0.51 | 3 | 1007.0 |
| 20260503174404 | 12 | 34 | 1.6 | 8.0 | 0.00 | 0.84 | 0.51 | 3 | 1007.0 |
| 20260503173904 | 12 | 38 | 4.8 | 11.3 | 0.00 | 0.84 | 0.51 | 3 | 1006.9 |
| 20260503173404 | 12 | 2 | 4.8 | 9.7 | 0.00 | 0.84 | 0.51 | 3 | 1006.9 |
| 20260503171905 | 12 | 32 | 1.6 | 4.8 | 0.00 | 0.84 | 0.51 | 3 | 1006.8 |
| 20260503170904 | 12 | 40 | 1.6 | 4.8 | 0.00 | 0.84 | 0.51 | 3 | 1006.8 |